 day,  time,  air_temp(C),  RH(%),  ground_temp10cm(C),  ground_temp20cm(C),  ground_temp40cm(C),  precipitation(mm/h),  Solar_Radiation(MJ/m2h),  lack, 
 03/11/01, 01:00,  10.3,  86,   9.6,  10.2,  10.8,   0.0,  0.00, 
 03/11/01, 02:00,  10.5,  86,   9.6,  10.1,  10.8,   0.0,  0.00, 
 03/11/01, 03:00,  10.7,  85,   9.5,  10.2,  10.9,   0.0,  0.00, 
 03/11/01, 04:00,  10.8,  87,   9.5,  10.1,  10.9,   0.0,  0.00, 
 03/11/01, 05:00,  10.2,  92,   9.5,  10.0,  10.8,   0.0,  0.00, 
 03/11/01, 06:00,  11.0,  89,   9.5,  10.0,  10.8,   0.0,  0.00, 
 03/11/01, 07:00,  10.8,  91,   9.5,  10.0,  10.8,   0.0,  0.00, 
 03/11/01, 08:00,  11.3,  90,   9.5,  10.0,  10.8,   0.0,  0.25, 
 03/11/01, 09:00,  11.9,  87,   9.6,  10.1,  10.9,   0.0,  0.57, 
 03/11/01, 10:00,  12.6,  80,   9.8,  10.0,  10.8,   0.0,  0.76, 
 03/11/01, 11:00,  13.5,  77,  10.1,  10.1,  10.9,   0.0,  0.88, 
 03/11/01, 12:00,  14.7,  69,  10.4,  10.1,  10.9,   0.0,  1.69, 
 03/11/01, 13:00,  16.3,  61,  10.8,  10.2,  10.9,   0.0,  1.47, 
 03/11/01, 14:00,  15.6,  60,  11.2,  10.2,  10.9,   0.0,  1.94, 
 03/11/01, 15:00,  14.5,  66,  11.6,  10.3,  10.9,   0.0,  1.51, 
 03/11/01, 16:00,  13.6,  68,  11.7,  10.4,  10.9,   0.0,  0.77, 
 03/11/01, 17:00,  11.8,  78,  11.6,  10.5,  10.8,   0.0,  0.09, 
 03/11/01, 18:00,   9.6,  90,  11.4,  10.6,  10.9,   0.0,  0.00, 
 03/11/01, 19:00,   9.0,  94,  11.2,  10.7,  10.9,   0.0,  0.00, 
 03/11/01, 20:00,   9.3,  98,  11.0,  10.7,  10.9,   0.0,  0.00, 
 03/11/01, 21:00,   9.1,  96,  10.8,  10.7,  10.9,   0.0,  0.00, 
 03/11/01, 22:00,   8.9,  93,  10.5,  10.7,  10.9,   0.0,  0.00, 
 03/11/01, 23:00,   9.9,  86,  10.4,  10.7,  10.9,   0.0,  0.00, 
 03/11/02, 00:00,   7.9,  95,  10.2,  10.7,  10.9,   0.0,  0.00, 
 03/11/02, 01:00,   8.3,  97,  10.0,  10.6,  10.9,   0.0,  0.00, 
 03/11/02, 02:00,   7.3,  99,   9.9,  10.6,  10.9,   0.0,  0.00, 
 03/11/02, 03:00,   7.4,  99,   9.8,  10.6,  10.9,   0.0,  0.00, 
 03/11/02, 04:00,   6.9,  99,   9.6,  10.5,  11.0,   0.0,  0.00, 
 03/11/02, 05:00,   6.7,  99,   9.5,  10.5,  11.0,   0.0,  0.00, 
 03/11/02, 06:00,   6.4,  99,   9.3,  10.4,  11.0,   0.0,  0.00, 
 03/11/02, 07:00,   6.9,  94,   9.2,  10.3,  11.0,   0.0,  0.02, 
 03/11/02, 08:00,  12.3,  64,   9.1,  10.4,  11.0,   0.0,  0.67, 
 03/11/02, 09:00,  11.8,  74,   9.1,  10.3,  11.0,   0.0,  1.29, 
 03/11/02, 10:00,  14.1,  64,   9.3,  10.3,  11.0,   0.0,  1.57, 
 03/11/02, 11:00,  15.7,  64,   9.8,  10.2,  11.1,   0.0,  2.28, 
 03/11/02, 12:00,  16.3,  58,  10.4,  10.2,  11.1,   0.0,  1.65, 
 03/11/02, 13:00,  16.4,  57,  10.9,  10.2,  11.1,   0.0,  2.08, 
 03/11/02, 14:00,  16.9,  59,  11.5,  10.3,  11.1,   0.0,  1.97, 
 03/11/02, 15:00,  15.5,  61,  11.9,  10.4,  11.1,   0.0,  1.03, 
 03/11/02, 16:00,  14.8,  62,  12.1,  10.4,  11.1,   0.0,  0.69, 
 03/11/02, 17:00,  13.4,  64,  12.0,  10.6,  11.1,   0.0,  0.07, 
 03/11/02, 18:00,  12.1,  70,  11.8,  10.7,  11.1,   0.0,  0.00, 
 03/11/02, 19:00,  10.9,  80,  11.6,  10.8,  11.0,   0.0,  0.00, 
 03/11/02, 20:00,  11.5,  79,  11.4,  10.9,  11.1,   0.0,  0.00, 
 03/11/02, 21:00,  11.6,  84,  11.2,  10.9,  11.0,   0.0,  0.00, 
 03/11/02, 22:00,  11.7,  83,  11.0,  11.0,  11.1,   0.0,  0.00, 
 03/11/02, 23:00,  11.0,  92,  10.8,  11.0,  11.0,   0.0,  0.00, 
 03/11/03, 00:00,  11.0,  91,  10.7,  10.9,  11.1,   0.0,  0.00, 
 03/11/03, 01:00,  10.5,  88,  10.6,  10.9,  11.0,   0.0,  0.00, 
 03/11/03, 02:00,   9.3,  93,  10.4,  10.9,  11.0,   0.0,  0.00, 
 03/11/03, 03:00,  12.1,  87,  10.3,  10.8,  11.1,   0.0,  0.00, 
 03/11/03, 04:00,  12.1,  92,  10.3,  10.8,  11.1,   0.0,  0.00, 
 03/11/03, 05:00,  12.4,  92,  10.3,  10.8,  11.1,   0.0,  0.00, 
 03/11/03, 06:00,  12.1,  97,  10.3,  10.7,  11.2,   0.0,  0.00, 
 03/11/03, 07:00,  11.7,  99,  10.3,  10.7,  11.2,   0.0,  0.00, 
 03/11/03, 08:00,  10.8,  99,  10.4,  10.7,  11.2,   5.5,  0.05, 
 03/11/03, 09:00,  12.4,  99,  10.5,  10.7,  11.2,   2.0,  0.18, 
 03/11/03, 10:00,  12.7,  99,  10.6,  10.7,  11.1,   0.5,  0.21, 
 03/11/03, 11:00,  12.5,  99,  10.7,  10.7,  11.1,   0.5,  0.21, 
 03/11/03, 12:00,  12.6,  99,  10.8,  10.7,  11.1,   0.5,  0.20, 
 03/11/03, 13:00,  12.7,  99,  11.0,  10.7,  11.2,   1.5,  0.19, 
 03/11/03, 14:00,  12.6,  99,  11.1,  10.7,  11.2,   4.0,  0.09, 
 03/11/03, 15:00,  12.3,  99,  11.2,  10.8,  11.1,   1.0,  0.13, 
 03/11/03, 16:00,  12.3,  99,  11.3,  10.8,  11.1,   0.5,  0.05, 
 03/11/03, 17:00,  12.3,  99,  11.4,  10.9,  11.1,   3.5,  0.00, 
 03/11/03, 18:00,  12.2,  99,  11.4,  10.9,  11.1,   4.5,  0.00, 
 03/11/03, 19:00,  12.2,  99,  11.5,  11.0,  11.2,   5.5,  0.00, 
 03/11/03, 20:00,  12.1,  99,  11.5,  11.0,  11.1,   1.0,  0.00, 
 03/11/03, 21:00,  11.7,  99,  11.5,  11.1,  11.1,   1.5,  0.00, 
 03/11/03, 22:00,   9.4,  99,  11.5,  11.1,  11.1,   1.0,  0.00, 
 03/11/03, 23:00,  10.0,  96,  11.4,  11.1,  11.1,   0.0,  0.00, 
 03/11/04, 00:00,   9.4,  86,  11.4,  11.2,  11.1,   0.0,  0.00, 
 03/11/04, 01:00,  10.5,  75,  11.3,  11.2,  11.1,   0.0,  0.00, 
 03/11/04, 02:00,  10.1,  85,  11.2,  11.2,  11.1,   0.5,  0.00, 
 03/11/04, 03:00,   9.1,  99,  11.1,  11.2,  11.1,   0.0,  0.00, 
 03/11/04, 04:00,   9.0,  99,  11.0,  11.1,  11.3,   0.0,  0.00, 
 03/11/04, 05:00,   8.5,  99,  10.9,  11.1,  11.3,   0.0,  0.00, 
 03/11/04, 06:00,   7.2,  99,  10.8,  11.1,  11.3,   0.0,  0.00, 
 03/11/04, 07:00,   6.6,  99,  10.8,  11.1,  11.2,   0.0,  0.00, 
 03/11/04, 08:00,   6.6,  99,  10.7,  11.1,  11.3,   0.0,  0.23, 
 03/11/04, 09:00,   6.7,  99,  10.6,  11.0,  11.2,   0.0,  0.81, 
 03/11/04, 10:00,   8.5,  94,  10.7,  11.0,  11.3,   0.0,  1.95, 
 03/11/04, 11:00,   9.7,  72,  11.2,  11.1,  11.3,   0.0,  2.30, 
 03/11/04, 12:00,   9.3,  79,  11.4,  11.0,  11.3,   0.0,  2.38, 
 03/11/04, 13:00,   9.7,  80,  11.9,  11.1,  11.4,   0.0,  2.37, 
 03/11/04, 14:00,   9.2,  82,  12.5,  11.1,  11.3,   0.0,  1.99, 
 03/11/04, 15:00,   7.7,  87,  12.7,  11.3,  11.4,   0.0,  1.47, 
 03/11/04, 16:00,   6.8,  90,  12.5,  11.4,  11.4,   0.0,  0.71, 
 03/11/04, 17:00,   5.2,  98,  12.3,  11.4,  11.3,   0.0,  0.08, 
 03/11/04, 18:00,   4.8,  99,  12.0,  11.4,  11.3,   0.0,  0.00, 
 03/11/04, 19:00,   4.5,  99,  11.7,  11.5,  11.3,   0.0,  0.00, 
 03/11/04, 20:00,   5.2,  99,  11.5,  11.5,  11.3,   0.0,  0.00, 
 03/11/04, 21:00,   7.1,  88,  11.2,  11.5,  11.3,   0.0,  0.00, 
 03/11/04, 22:00,   6.3,  93,  11.0,  11.4,  11.3,   0.0,  0.00, 
 03/11/04, 23:00,   7.7,  87,  10.7,  11.4,  11.3,   0.0,  0.00, 
 03/11/05, 00:00,   8.6,  91,  10.5,  11.3,  11.3,   0.0,  0.00, 
 03/11/05, 01:00,   7.2,  98,  10.4,  11.3,  11.3,   0.0,  0.00, 
 03/11/05, 02:00,   7.4,  93,  10.3,  11.2,  11.4,   0.0,  0.00, 
 03/11/05, 03:00,   8.5,  80,  10.2,  11.1,  11.4,   0.0,  0.00, 
 03/11/05, 04:00,   8.7,  78,  10.1,  11.1,  11.4,   0.0,  0.00, 
 03/11/05, 05:00,   8.9,  81,  10.0,  11.0,  11.4,   0.0,  0.00, 
 03/11/05, 06:00,   9.3,  84,   9.9,  10.9,  11.4,   0.0,  0.00, 
 03/11/05, 07:00,   9.8,  86,   9.8,  10.9,  11.4,   0.0,  0.01, 
 03/11/05, 08:00,  11.6,  80,   9.8,  10.8,  11.4,   0.5,  0.43, 
 03/11/05, 09:00,  12.4,  79,   9.8,  10.7,  11.4,   0.0,  0.84, 
 03/11/05, 10:00,  12.5,  79,   9.9,  10.7,  11.4,   0.0,  1.41, 
 03/11/05, 11:00,  14.9,  67,  10.3,  10.6,  11.4,   0.0,  2.01, 
 03/11/05, 12:00,  14.6,  68,  10.8,  10.7,  11.4,   0.0,  1.59, 
 03/11/05, 13:00,  13.9,  75,  11.2,  10.7,  11.4,   0.0,  0.93, 
 03/11/05, 14:00,  13.9,  71,  11.5,  10.7,  11.4,   0.0,  0.70, 
 03/11/05, 15:00,  13.9,  77,  11.7,  10.8,  11.4,   0.0,  0.57, 
 03/11/05, 16:00,  12.4,  89,  11.8,  10.9,  11.3,   0.0,  0.15, 
 03/11/05, 17:00,  12.1,  91,  11.8,  11.0,  11.3,   0.0,  0.01, 
 03/11/05, 18:00,  11.8,  91,  11.8,  11.1,  11.4,   0.0,  0.00, 
 03/11/05, 19:00,  10.8,  99,  11.7,  11.1,  11.3,   0.0,  0.00, 
 03/11/05, 20:00,  11.2,  99,  11.7,  11.3,  11.4,   0.0,  0.00, 
 03/11/05, 21:00,  10.5,  99,  11.6,  11.2,  11.3,   0.0,  0.00, 
 03/11/05, 22:00,  10.5,  99,  11.5,  11.3,  11.4,   0.0,  0.00, 
 03/11/05, 23:00,   9.8,  96,  11.5,  11.4,  11.4,   0.5,  0.00, 
 03/11/06, 00:00,   9.4,  99,  11.4,  11.4,  11.4,   0.5,  0.00, 
 03/11/06, 01:00,  10.5,  81,  11.3,  11.3,  11.3,   0.5,  0.00, 
 03/11/06, 02:00,   9.1,  99,  11.2,  11.3,  11.4,   0.5,  0.00, 
 03/11/06, 03:00,   9.3,  99,  11.1,  11.3,  11.4,   0.5,  0.00, 
 03/11/06, 04:00,   9.0,  99,  11.0,  11.3,  11.4,   0.0,  0.00, 
 03/11/06, 05:00,  11.5,  87,  11.0,  11.3,  11.4,   0.5,  0.00, 
 03/11/06, 06:00,  11.4,  92,  11.0,  11.2,  11.4,   0.5,  0.00, 
 03/11/06, 07:00,   9.9,  99,  10.9,  11.2,  11.4,   0.5,  0.00, 
 03/11/06, 08:00,   9.8,  99,  10.9,  11.2,  11.4,   0.5,  0.11, 
 03/11/06, 09:00,  11.3,  99,  10.9,  11.3,  11.4,   0.0,  0.32, 
 03/11/06, 10:00,  11.7,  99,  11.0,  11.2,  11.4,   0.0,  0.78, 
 03/11/06, 11:00,  11.7,  99,  11.4,  11.2,  11.4,   0.0,  1.10, 
 03/11/06, 12:00,  11.9,  99,  11.6,  11.2,  11.4,   0.0,  0.89, 
 03/11/06, 13:00,  13.6,  92,  11.8,  11.3,  11.4,   0.0,  0.93, 
 03/11/06, 14:00,  15.1,  83,  12.1,  11.3,  11.4,   0.0,  1.69, 
 03/11/06, 15:00,  13.8,  90,  12.4,  11.4,  11.5,   0.0,  1.51, 
 03/11/06, 16:00,  13.1,  91,  12.6,  11.4,  11.4,   0.0,  0.45, 
 03/11/06, 17:00,  11.9,  96,  12.6,  11.6,  11.5,   0.0,  0.05, 
 03/11/06, 18:00,  11.3,  96,  12.4,  11.6,  11.5,   0.0,  0.00, 
 03/11/06, 19:00,  10.2,  99,  12.2,  11.6,  11.4,   0.0,  0.00, 
 03/11/06, 20:00,  10.6,  99,  12.0,  11.7,  11.4,   0.0,  0.00, 
 03/11/06, 21:00,  10.0,  99,  12.0,  11.8,  11.6,   0.0,  0.00, 
 03/11/06, 22:00,   9.5,  99,  11.7,  11.8,  11.6,   0.0,  0.00, 
 03/11/06, 23:00,   9.3,  99,  11.5,  11.8,  11.6,   0.0,  0.00, 
 03/11/07, 00:00,   9.3,  97,  11.3,  11.6,  11.6,   0.0,  0.00, 
 03/11/07, 01:00,   8.4,  95,  11.1,  11.6,  11.5,   0.0,  0.00, 
 03/11/07, 02:00,   6.2,  99,  10.9,  11.5,  11.5,   0.0,  0.00, 
 03/11/07, 03:00,   7.0,  98,  10.8,  11.6,  11.6,   0.0,  0.00, 
 03/11/07, 04:00,   6.4,  99,  10.6,  11.4,  11.5,   0.0,  0.00, 
 03/11/07, 05:00,   7.0,  99,  10.5,  11.4,  11.5,   0.0,  0.00, 
 03/11/07, 06:00,   5.6,  99,  10.4,  11.4,  11.5,   0.0,  0.00, 
 03/11/07, 07:00,   5.8,  99,  10.3,  11.3,  11.7,   0.0,  0.01, 
 03/11/07, 08:00,   7.7,  98,  10.1,  11.3,  11.7,   0.5,  0.52, 
 03/11/07, 09:00,   9.8,  93,  10.0,  11.2,  11.7,   0.0,  1.17, 
 03/11/07, 10:00,  12.0,  85,  10.2,  11.1,  11.7,   0.0,  1.81, 
 03/11/07, 11:00,  13.0,  84,  10.7,  11.1,  11.7,   0.0,  2.13, 
 03/11/07, 12:00,  14.4,  76,  11.1,  11.0,  11.7,   0.0,  2.34, 
 03/11/07, 13:00,  15.3,  69,  11.8,  11.0,  11.7,   0.0,  2.23, 
 03/11/07, 14:00,  15.6,  52,  12.4,  11.1,  11.7,   0.0,  1.86, 
 03/11/07, 15:00,  15.3,  49,  12.8,  11.2,  11.6,   0.0,  1.28, 
 03/11/07, 16:00,  14.4,  55,  12.7,  11.3,  11.6,   0.0,  0.58, 
 03/11/07, 17:00,  12.5,  71,  12.5,  11.4,  11.6,   0.0,  0.05, 
 03/11/07, 18:00,  11.5,  77,  12.3,  11.5,  11.6,   0.0,  0.00, 
 03/11/07, 19:00,   9.3,  91,  12.0,  11.6,  11.6,   0.0,  0.00, 
 03/11/07, 20:00,   8.1,  97,  11.7,  11.6,  11.6,   0.0,  0.00, 
 03/11/07, 21:00,   8.3,  98,  11.5,  11.6,  11.5,   0.0,  0.00, 
 03/11/07, 22:00,   7.9,  99,  11.3,  11.6,  11.6,   0.0,  0.00, 
 03/11/07, 23:00,   8.3,  99,  11.1,  11.6,  11.6,   0.0,  0.00, 
 03/11/08, 00:00,   9.1,  98,  10.9,  11.6,  11.6,   0.0,  0.00, 
 03/11/08, 01:00,   7.0,  99,  10.8,  11.5,  11.6,   0.0,  0.00, 
 03/11/08, 02:00,   7.0,  99,  10.6,  11.5,  11.7,   0.0,  0.00, 
 03/11/08, 03:00,   7.0,  99,  10.4,  11.4,  11.6,   0.0,  0.00, 
 03/11/08, 04:00,   8.3,  94,  10.4,  11.3,  11.7,   0.0,  0.00, 
 03/11/08, 05:00,   9.6,  84,  10.2,  11.2,  11.6,   0.0,  0.00, 
 03/11/08, 06:00,  11.7,  54,  10.1,  11.1,  11.6,   0.0,  0.00, 
 03/11/08, 07:00,  11.5,  51,  10.2,  11.2,  11.6,   0.0,  0.03, 
 03/11/08, 08:00,  12.1,  52,  10.1,  11.0,  11.6,   0.0,  0.36, 
 03/11/08, 09:00,  13.7,  52,  10.2,  11.1,  11.6,   0.0,  1.09, 
 03/11/08, 10:00,  13.8,  53,  10.4,  11.0,  11.7,   0.0,  1.48, 
 03/11/08, 11:00,  13.6,  76,  10.7,  11.0,  11.7,   0.0,  1.73, 
 03/11/08, 12:00,  14.5,  63,  11.1,  11.0,  11.7,   0.0,  1.80, 
 03/11/08, 13:00,  15.3,  57,  11.7,  11.0,  11.7,   0.0,  2.00, 
 03/11/08, 14:00,  15.0,  57,  12.2,  11.1,  11.7,   0.0,  1.59, 
 03/11/08, 15:00,  15.0,  58,  12.3,  11.1,  11.6,   0.0,  1.40, 
 03/11/08, 16:00,  14.0,  62,  12.4,  11.3,  11.6,   0.0,  0.53, 
 03/11/08, 17:00,  13.1,  65,  12.4,  11.4,  11.6,   0.0,  0.03, 
 03/11/08, 18:00,  12.6,  68,  12.3,  11.5,  11.6,   0.0,  0.00, 
 03/11/08, 19:00,  12.2,  69,  12.2,  11.4,  11.5,   0.0,  0.00, 
 03/11/08, 20:00,  11.7,  72,  12.1,  11.6,  11.6,   0.0,  0.00, 
 03/11/08, 21:00,  11.5,  71,  11.9,  11.5,  11.5,   0.0,  0.00, 
 03/11/08, 22:00,  11.7,  72,  11.8,  11.6,  11.5,   0.0,  0.00, 
 03/11/08, 23:00,  12.4,  68,  11.7,  11.6,  11.5,   0.0,  0.00, 
 03/11/09, 00:00,  12.4,  69,  11.6,  11.6,  11.5,   0.0,  0.00, 
 03/11/09, 01:00,  12.3,  70,  11.5,  11.7,  11.6,   0.0,  0.00, 
 03/11/09, 02:00,  12.0,  73,  11.5,  11.6,  11.6,   0.0,  0.00, 
 03/11/09, 03:00,  11.3,  81,  11.4,  11.6,  11.7,   0.0,  0.00, 
 03/11/09, 04:00,  11.1,  84,  11.4,  11.6,  11.7,   0.0,  0.00, 
 03/11/09, 05:00,  10.3,  93,  11.3,  11.5,  11.6,   0.0,  0.00, 
 03/11/09, 06:00,   9.6,  98,  11.3,  11.5,  11.6,   2.0,  0.00, 
 03/11/09, 07:00,   9.4,  99,  11.2,  11.5,  11.6,   4.0,  0.00, 
 03/11/09, 08:00,   9.7,  98,  11.1,  11.6,  11.7,   1.5,  0.00, 
 03/11/09, 09:00,   9.5,  99,  11.0,  11.4,  11.6,   1.0,  0.01, 
 03/11/09, 10:00,   7.0,  99,  11.0,  11.5,  11.7,   2.5,  0.06, 
 03/11/09, 11:00,   5.9,  99,  10.9,  11.4,  11.6,   1.0,  0.17, 
 03/11/09, 12:00,   6.0,  99,  10.9,  11.4,  11.6,   0.0,  0.38, 
 03/11/09, 13:00,   6.7,  99,  10.9,  11.4,  11.6,   0.0,  0.74, 
 03/11/09, 14:00,   6.0,  99,  11.0,  11.4,  11.6,   0.0,  0.42, 
 03/11/09, 15:00,   6.0,  99,  11.0,  11.4,  11.6,   0.0,  0.18, 
 03/11/09, 16:00,   6.0,  99,  11.0,  11.2,  11.6,   0.0,  0.09, 
 03/11/09, 17:00,   5.1,  99,  10.9,  11.3,  11.6,   0.0,  0.00, 
 03/11/09, 18:00,   5.1,  99,  10.8,  11.2,  11.6,   0.0,  0.00, 
 03/11/09, 19:00,   4.6,  99,  10.7,  11.3,  11.6,   0.5,  0.00, 
 03/11/09, 20:00,   4.0,  99,  10.6,  11.2,  11.6,   0.0,  0.00, 
 03/11/09, 21:00,   3.9,  99,  10.5,  11.2,  11.6,   1.5,  0.00, 
 03/11/09, 22:00,   5.2,  98,  10.3,  11.1,  11.6,   1.0,  0.00, 
 03/11/09, 23:00,   4.7,  99,  10.1,  11.2,  11.6,   1.0,  0.00, 
 03/11/10, 00:00,   3.7,  99,  10.0,  11.0,  11.6,   0.0,  0.00, 
 03/11/10, 01:00,   3.8,  99,   9.8,  10.9,  11.6,   1.0,  0.00, 
 03/11/10, 02:00,   3.8,  99,   9.7,  10.9,  11.6,   0.0,  0.00, 
 03/11/10, 03:00,   3.8,  99,   9.6,  10.8,  11.6,   0.0,  0.00, 
 03/11/10, 04:00,   3.8,  99,   9.5,  10.7,  11.6,   0.0,  0.00, 
 03/11/10, 05:00,   3.8,  99,   9.5,  10.7,  11.5,   0.0,  0.00, 
 03/11/10, 06:00,   3.9,  99,   9.4,  10.6,  11.5,   0.0,  0.00, 
 03/11/10, 07:00,   3.6,  99,   9.3,  10.6,  11.5,   0.0,  0.00, 
 03/11/10, 08:00,   3.9,  99,   9.3,  10.5,  11.5,   0.0,  0.09, 
 03/11/10, 09:00,   4.8,  99,   9.2,  10.5,  11.5,   0.0,  0.41, 
 03/11/10, 10:00,   5.0,  99,   9.3,  10.4,  11.5,   0.0,  0.42, 
 03/11/10, 11:00,   6.8,  99,   9.4,  10.4,  11.5,   0.0,  0.35, 
 03/11/10, 12:00,   8.1,  99,   9.5,  10.4,  11.5,   0.5,  0.27, 
 03/11/10, 13:00,   6.4,  99,   9.6,  10.4,  11.4,   0.0,  0.16, 
 03/11/10, 14:00,   6.8,  99,   9.6,  10.4,  11.4,   0.5,  0.09, 
 03/11/10, 15:00,   7.7,  99,   9.7,  10.4,  11.4,   0.5,  0.20, 
 03/11/10, 16:00,   7.4,  99,   9.7,  10.4,  11.4,   0.0,  0.03, 
 03/11/10, 17:00,   7.4,  99,   9.7,  10.4,  11.4,   0.5,  0.00, 
 03/11/10, 18:00,   6.9,  99,   9.7,  10.4,  11.4,   3.5,  0.00, 
 03/11/10, 19:00,   7.2,  99,   9.6,  10.3,  11.3,   4.5,  0.00, 
 03/11/10, 20:00,   7.0,  99,   9.5,  10.3,  11.3,   3.5,  0.00, 
 03/11/10, 21:00,   7.3,  99,   9.4,  10.3,  11.3,   2.0,  0.00, 
 03/11/10, 22:00,   6.1,  99,   9.3,  10.1,  11.3,   2.0,  0.00, 
 03/11/10, 23:00,   7.3,  99,   9.2,  10.2,  11.3,   2.0,  0.00, 
 03/11/11, 00:00,   5.7,  99,   9.2,  10.0,  11.2,   2.5,  0.00, 
 03/11/11, 01:00,   8.0,  99,   9.1,  10.1,  11.3,   1.0,  0.00, 
 03/11/11, 02:00,   8.9,  99,   9.1,  10.1,  11.2,   0.5,  0.00, 
 03/11/11, 03:00,   8.1,  99,   9.1,  10.0,  11.1,   1.5,  0.00, 
 03/11/11, 04:00,   9.8,  99,   9.1,  10.0,  11.2,   0.5,  0.00, 
 03/11/11, 05:00,   9.9,  99,   9.2,  10.0,  11.2,   0.0,  0.00, 
 03/11/11, 06:00,  10.1,  99,   9.2,   9.8,  11.1,   0.5,  0.00, 
 03/11/11, 07:00,  10.1,  99,   9.3,   9.9,  11.1,   0.0,  0.00, 
 03/11/11, 08:00,  10.1,  99,   9.3,   9.8,  11.0,   1.0,  0.00, 
 03/11/11, 09:00,  10.2,  99,   9.4,   9.9,  11.0,   0.0,  0.03, 
 03/11/11, 10:00,  10.1,  99,   9.4,   9.9,  11.1,   1.5,  0.00, 
 03/11/11, 11:00,   7.4,  99,   9.5,   9.9,  11.1,   9.5,  0.00, 
 03/11/11, 12:00,   5.9,  95,   9.5,   9.9,  11.0,   8.5,  0.01, 
 03/11/11, 13:00,   5.8,  99,   9.3,   9.9,  11.0,   2.5,  0.31, 
 03/11/11, 14:00,   5.9,  99,   9.3,   9.8,  11.0,   1.5,  0.31, 
 03/11/11, 15:00,   5.8,  99,   9.3,   9.8,  10.9,   0.0,  0.14, 
 03/11/11, 16:00,   5.5,  99,   9.3,   9.8,  10.9,   0.0,  0.08, 
 03/11/11, 17:00,   5.0,  99,   9.3,   9.8,  10.9,   0.5,  0.01, 
 03/11/11, 18:00,   4.9,  99,   9.2,   9.8,  10.9,   0.0,  0.00, 
 03/11/11, 19:00,   4.9,  99,   9.1,   9.8,  10.9,   0.0,  0.00, 
 03/11/11, 20:00,   4.8,  99,   9.0,   9.8,  10.9,   0.0,  0.00, 
 03/11/11, 21:00,   4.6,  99,   9.0,   9.8,  10.8,   0.0,  0.00, 
 03/11/11, 22:00,   4.5,  99,   8.9,   9.7,  10.8,   0.0,  0.00, 
 03/11/11, 23:00,   4.5,  99,   8.8,   9.6,  10.7,   0.0,  0.00, 
 03/11/12, 00:00,   4.5,  99,   8.8,   9.7,  10.8,   0.0,  0.00, 
 03/11/12, 01:00,   4.4,  99,   8.7,   9.6,  10.7,   0.5,  0.00, 
 03/11/12, 02:00,   4.0,  99,   8.7,   9.7,  10.8,   1.5,  0.00, 
 03/11/12, 03:00,   3.9,  99,   8.6,   9.5,  10.7,   2.5,  0.00, 
 03/11/12, 04:00,   3.7,  99,   8.4,   9.5,  10.7,   0.5,  0.00, 
 03/11/12, 05:00,   3.3,  99,   8.4,   9.4,  10.7,   0.0,  0.00, 
 03/11/12, 06:00,   3.3,  99,   8.3,   9.4,  10.7,   0.0,  0.00, 
 03/11/12, 07:00,   3.1,  99,   8.2,   9.4,  10.7,   0.0,  0.00, 
 03/11/12, 08:00,   4.0,  99,   8.2,   9.3,  10.6,   0.0,  0.19, 
 03/11/12, 09:00,   3.3,  99,   8.2,   9.3,  10.6,   0.0,  0.22, 
 03/11/12, 10:00,   4.0,  99,   8.2,   9.2,  10.6,   0.0,  0.34, 
 03/11/12, 11:00,   4.3,  99,   8.3,   9.2,  10.6,   0.0,  0.49, 
 03/11/12, 12:00,   4.1,  99,   8.4,   9.2,  10.6,   0.0,  0.35, 
 03/11/12, 13:00,   4.0,  99,   8.4,   9.2,  10.6,   0.0,  0.23, 
 03/11/12, 14:00,   4.0,  99,   8.5,   9.2,  10.6,   0.0,  0.16, 
 03/11/12, 15:00,   3.5,  99,   8.5,   9.3,  10.6,   0.5,  0.15, 
 03/11/12, 16:00,   3.1,  99,   8.5,   9.3,  10.6,   0.0,  0.09, 
 03/11/12, 17:00,   3.1,  99,   8.4,   9.2,  10.5,   0.0,  0.00, 
 03/11/12, 18:00,   2.5,  99,   8.4,   9.2,  10.5,   0.0,  0.00, 
 03/11/12, 19:00,   2.5,  99,   8.3,   9.2,  10.5,   0.0,  0.00, 
 03/11/12, 20:00,   2.1,  99,   8.2,   9.1,  10.5,   0.0,  0.00, 
 03/11/12, 21:00,   2.0,  99,   8.1,   9.2,  10.5,   0.0,  0.00, 
 03/11/12, 22:00,   1.9,  99,   8.1,   9.2,  10.5,   0.0,  0.00, 
 03/11/12, 23:00,   1.8,  99,   8.0,   9.2,  10.5,   0.0,  0.00, 
 03/11/13, 00:00,   1.9,  99,   8.0,   9.1,  10.5,   0.0,  0.00, 
 03/11/13, 01:00,   1.8,  99,   7.8,   9.1,  10.5,   0.0,  0.00, 
 03/11/13, 02:00,   2.6,  99,   7.7,   9.1,  10.5,   0.0,  0.00, 
 03/11/13, 03:00,   3.1,  99,   7.7,   8.9,  10.5,   0.0,  0.00, 
 03/11/13, 04:00,   2.1,  99,   7.6,   8.9,  10.4,   0.0,  0.00, 
 03/11/13, 05:00,   0.9,  99,   7.5,   8.8,  10.5,   0.0,  0.00, 
 03/11/13, 06:00,   0.5,  99,   7.3,   8.8,  10.4,   0.0,  0.00, 
 03/11/13, 07:00,   0.3,  99,   7.2,   8.8,  10.4,   0.0,  0.00, 
 03/11/13, 08:00,   1.6,  99,   7.1,   8.7,  10.4,   0.0,  0.21, 
 03/11/13, 09:00,   2.5,  99,   7.1,   8.6,  10.4,   0.0,  0.65, 
 03/11/13, 10:00,   2.8,  99,   7.2,   8.6,  10.4,   0.0,  0.68, 
 03/11/13, 11:00,   3.7,  99,   7.4,   8.5,  10.4,   0.0,  1.03, 
 03/11/13, 12:00,   2.9,  99,   7.6,   8.6,  10.4,   0.0,  0.56, 
 03/11/13, 13:00,   4.5,  92,   7.8,   8.5,  10.4,   0.0,  1.11, 
 03/11/13, 14:00,   4.1,  94,   8.0,   8.5,  10.4,   0.0,  0.69, 
 03/11/13, 15:00,   3.2,  91,   8.1,   8.5,  10.4,   0.0,  0.33, 
 03/11/13, 16:00,   2.7,  94,   8.2,   8.7,  10.4,   0.0,  0.22, 
 03/11/13, 17:00,   2.2,  94,   8.2,   8.6,  10.3,   0.0,  0.00, 
 03/11/13, 18:00,   1.5,  98,   8.1,   8.6,  10.3,   0.0,  0.00, 
 03/11/13, 19:00,   1.4,  91,   7.9,   8.8,  10.3,   0.5,  0.00, 
 03/11/13, 20:00,   0.7,  95,   7.8,   8.8,  10.3,   0.0,  0.00, 
 03/11/13, 21:00,   0.0,  97,   7.6,   8.8,  10.3,   0.0,  0.00, 
 03/11/13, 22:00,   0.2,  99,   7.4,   8.6,  10.3,   0.0,  0.00, 
 03/11/13, 23:00,  -0.1,  98,   7.2,   8.6,  10.1,   0.0,  0.00, 
 03/11/14, 00:00,   0.0,  96,   7.2,   8.7,  10.2,   0.0,  0.00, 
 03/11/14, 01:00,  -0.4,  94,   6.9,   8.6,  10.2,   0.0,  0.00, 
 03/11/14, 02:00,  -0.6,  97,   6.8,   8.4,  10.1,   0.0,  0.00, 
 03/11/14, 03:00,  -0.6,  97,   6.6,   8.4,  10.1,   0.0,  0.00, 
 03/11/14, 04:00,  -0.5,  97,   6.5,   8.3,  10.1,   0.0,  0.00, 
 03/11/14, 05:00,  -1.3,  99,   6.4,   8.3,  10.1,   0.0,  0.00, 
 03/11/14, 06:00,  -1.5,  99,   6.2,   8.3,  10.1,   0.0,  0.00, 
 03/11/14, 07:00,  -1.5,  99,   6.0,   8.1,  10.1,   0.0,  0.00, 
 03/11/14, 08:00,   0.3,  91,   6.0,   8.1,  10.0,   0.0,  0.66, 
 03/11/14, 09:00,   1.2,  90,   5.9,   8.1,  10.1,   0.0,  1.70, 
 03/11/14, 10:00,   2.9,  84,   5.9,   7.9,  10.1,   0.0,  2.01, 
 03/11/14, 11:00,   4.0,  79,   6.3,   7.9,  10.1,   0.0,  2.18, 
 03/11/14, 12:00,   5.5,  73,   6.7,   7.9,  10.1,   0.0,  2.37, 
 03/11/14, 13:00,   5.8,  71,   7.1,   7.8,  10.1,   0.0,  2.24, 
 03/11/14, 14:00,   6.8,  60,   7.5,   7.8,  10.0,   0.0,  1.79, 
 03/11/14, 15:00,   6.1,  60,   7.8,   7.9,  10.0,   0.0,  1.25, 
 03/11/14, 16:00,   6.0,  53,   7.8,   8.0,  10.0,   0.0,  0.53, 
 03/11/14, 17:00,   2.9,  73,   7.6,   8.0,  10.0,   0.0,  0.02, 
 03/11/14, 18:00,   2.0,  74,   7.4,   8.1,   9.9,   0.0,  0.00, 
 03/11/14, 19:00,   3.0,  60,   7.2,   8.1,   9.9,   0.0,  0.00, 
 03/11/14, 20:00,   3.5,  66,   7.1,   8.1,   9.9,   0.0,  0.00, 
 03/11/14, 21:00,   0.8,  78,   6.8,   8.1,   9.9,   0.0,  0.00, 
 03/11/14, 22:00,  -0.1,  82,   6.5,   8.0,   9.8,   0.0,  0.00, 
 03/11/14, 23:00,   1.2,  72,   6.3,   8.1,   9.9,   0.0,  0.00, 
 03/11/15, 00:00,   0.2,  81,   6.2,   8.0,   9.7,   0.0,  0.00, 
 03/11/15, 01:00,   2.0,  61,   6.0,   7.8,   9.7,   0.0,  0.00, 
 03/11/15, 02:00,   4.6,  36,   5.7,   7.8,   9.7,   0.0,  0.00, 
 03/11/15, 03:00,   4.5,  47,   5.7,   7.7,   9.7,   0.0,  0.00, 
 03/11/15, 04:00,   4.9,  54,   5.7,   7.6,   9.7,   0.0,  0.00, 
 03/11/15, 05:00,   5.7,  47,   5.6,   7.6,   9.7,   0.0,  0.00, 
 03/11/15, 06:00,   4.7,  55,   5.5,   7.5,   9.7,   0.0,  0.00, 
 03/11/15, 07:00,   5.1,  61,   5.5,   7.4,   9.7,   0.0,  0.00, 
 03/11/15, 08:00,   6.9,  62,   5.5,   7.4,   9.6,   0.0,  0.31, 
 03/11/15, 09:00,   7.7,  73,   5.6,   7.3,   9.6,   0.0,  0.77, 
 03/11/15, 10:00,   8.0,  77,   5.8,   7.4,   9.7,   0.0,  0.57, 
 03/11/15, 11:00,  10.3,  65,   6.1,   7.3,   9.6,   0.0,  1.31, 
 03/11/15, 12:00,   9.9,  66,   6.4,   7.2,   9.6,   0.0,  1.37, 
 03/11/15, 13:00,   9.8,  69,   6.8,   7.3,   9.5,   0.0,  0.65, 
 03/11/15, 14:00,   9.6,  74,   7.2,   7.3,   9.5,   0.0,  0.26, 
 03/11/15, 15:00,   9.6,  75,   7.3,   7.5,   9.5,   0.0,  0.25, 
 03/11/15, 16:00,  10.0,  72,   7.4,   7.4,   9.5,   0.0,  0.06, 
 03/11/15, 17:00,   9.5,  78,   7.5,   7.5,   9.5,   0.0,  0.00, 
 03/11/15, 18:00,   9.0,  82,   7.5,   7.6,   9.4,   0.0,  0.00, 
 03/11/15, 19:00,   8.0,  99,   7.5,   7.8,   9.4,   0.0,  0.00, 
 03/11/15, 20:00,   8.0,  96,   7.5,   7.7,   9.4,   1.0,  0.00, 
 03/11/15, 21:00,   7.7,  99,   7.5,   7.8,   9.4,   2.0,  0.00, 
 03/11/15, 22:00,   8.2,  99,   7.5,   7.9,   9.4,   4.0,  0.00, 
 03/11/15, 23:00,   8.9,  99,   7.5,   7.8,   9.4,   0.5,  0.00, 
 03/11/16, 00:00,   9.0,  99,   7.6,   7.9,   9.4,   1.0,  0.00, 
 03/11/16, 01:00,   9.2,  99,   7.6,   8.0,   9.3,   1.0,  0.00, 